Regional Weather Roundup
Issued by NWS Green Bay, WI

Home | Current Version | Previous Version | Graphics & Text | Print | Product List | Glossary Off
Versions: 1 2 3 4 5 6 7 8 9 10 11 12 13 14 15 16 17 18 19 20 21 22 23 24 25 26 27 28 29 30 31 32 33 34 35 36 37 38 39 40 41 42 43 44 45 46 47 48 49 50

000
ASUS43 KGRB 272110
RWRGRB

NORTH-CENTRAL AND NORTHEAST WISCONSIN REGIONAL WEATHER ROUNDUP
NATIONAL WEATHER SERVICE GREEN BAY WI
300 PM CST SAT DEC 27 2014

WIZ005-009-010>012-018-019-272200-
NORTH CENTRAL WISCONSIN

CITY           SKY/WX    TMP DP  RH WIND       PRES   REMARKS
IRONWOOD       CLOUDY    23  23 100 W9        29.92R
MANITOWISH WTR CLOUDY    24  23  94 NW8       29.91R
ARBOR VITAE    CLOUDY    29  26  89 NW7       29.91R
EAGLE RIVER    LGT SNOW  28  24  85 NW8       29.88R
LAND O LAKES   LGT SNOW  28  25  86 NW6       29.89R
RHINELANDER    CLOUDY    28  24  85 NW12G20   29.89R
PHILLIPS       CLOUDY    26  23  89 W3        29.94R
ANTIGO         LGT SNOW  30  28  95 NW9       29.88R
TOMAHAWK       CLOUDY    28  24  86 NW10G16   29.92R
MERRILL        CLOUDY    31  26  81 NW10      29.92R
$$

WIZ013-073-272200-
NORTHEAST WISCONSIN

CITY           SKY/WX    TMP DP  RH WIND       PRES   REMARKS
IRON MOUNTAIN    N/A     31  26  82 NW7       29.85R
MARINETTE      CLOUDY    34  30  86 NW7       29.85R
OCONTO         CLOUDY    33  33 100 NW7       29.87R
$$

WIZ017-030-035>037-045-272200-
CENTRAL WISCONSIN

CITY           SKY/WX    TMP DP  RH WIND       PRES   REMARKS
MEDFORD        CLOUDY    27  23  86 NW10      29.94R
WAUSAU         CLOUDY    31  26  82 NW14G22   29.91R
MOSINEE        CLOUDY    30  28  93 NW15      29.93R
MARSHFIELD     CLOUDY    29  23  78 NW15      29.96R
WISC RAPIDS    CLOUDY    30  25  81 W14G24    29.98R
STEVENS POINT  CLOUDY    30  27  89 W9G16     29.95R
WAUPACA        CLOUDY    36  31  82 W9G16     29.93R
SHAWANO        CLOUDY    34  33  96 NW7       29.89R
CLINTONVILLE   CLOUDY    34  32  93 NW10      29.89R
$$

WIZ038-039-048-051-272200-
FOX VALLEY

CITY           SKY/WX    TMP DP  RH WIND       PRES   REMARKS
NWS GREEN BAY  CLOUDY    35  32  88 NW12      29.88R
APPLETON       CLOUDY    34  32  93 W14G22    29.89R
OSHKOSH        CLOUDY    34  29  82 W15G24    29.92R
FOND DU LAC    CLOUDY    35  29  78 W16G26    29.93R
$$

WIZ022-050-052-272200-
EAST CENTRAL WISCONSIN

CITY           SKY/WX    TMP DP  RH WIND       PRES   REMARKS
STURGEON BAY   CLOUDY    34  30  86 NW10      29.86R
MANITOWOC      CLOUDY    37  32  82 W18G26    29.87R
SHEBOYGAN      CLOUDY    36  29  75 W16G31    29.90R
$$

LMZ563-521-522-541>543-272200-
LAKESHORE

STATION/POSITION TIME  TEMP    WIND        PRES    VSBY  WAVE
                       AIR SEA DIR/SP/G                  HT/PER
                 (UTC) (F)     (DEG/KT/KT) (MB)    (MI)  (FT/S)
SHEBOYGAN LKSHOR 2100   36 39  270/ 25/ 32 1013.3R
KEWAUNEE LKSHORE 2100   35     310/ 12/ 16 1010.0R
ALGOMA MARINA    2100          320/ 11/ 14   N/A
NORTHPORT PIER   2100   33     310/ 12/ 16 1009.8R
SISTER BAY LKSHO 2100          340/ 16/ 17   N/A
CHAMBERS ISLAND  2100   33     300/  6/ 10 1010.5R
MENOMINEE LKSHOR 2100   33     300/  8/ 14 1011.6R
$$



USA.gov is the U.S. government's official web portal to all federal, state and local government web resources and services.